Location: *
(47.7167°N, 1.7333°W)
Time: 07:26:29
(UTC+00:00)

COSMOS 2406 - Visible Passes

Search period start: 11 August 2020 00:00
Search period end: 21 August 2020 00:00
Orbit: 844 x 863 km, 71.0° (Epoch: 10 August)

Date Brightness Start Highest point End Pass type
(mag) Time Alt. Az. Time Alt. Az. Time Alt. Az.
11 Aug 6.7 02:34:53 10° NNE 02:35:59 10° NNE 02:37:05 10° NE visible
11 Aug 5.1 04:16:52 10° NNW 04:22:08 36° NE 04:27:20 10° ESE visible
11 Aug 4.6 20:58:04 10° WSW 21:03:28 41° NW 21:08:54 10° NNE visible
11 Aug 6.5 22:47:29 10° NW 22:49:27 12° NNW 22:51:27 10° N visible
12 Aug 6.7 02:23:21 10° NNE 02:24:32 11° NNE 02:25:42 10° NE visible
12 Aug 5.0 04:05:24 10° NNW 04:10:40 37° NE 04:15:53 10° ESE visible
12 Aug 4.7 20:46:36 10° WSW 20:52:00 41° NW 20:57:25 10° NNE visible
12 Aug 6.5 22:36:05 10° NW 22:38:00 12° NNW 22:39:56 10° N visible
13 Aug 6.7 02:11:48 10° NNE 02:13:04 11° NNE 02:14:20 10° NE visible
13 Aug 5.0 03:53:55 10° NNW 03:59:12 37° NE 04:04:26 10° ESE visible
13 Aug 4.7 20:35:08 10° WSW 20:40:32 41° NW 20:45:57 10° NNE visible
13 Aug 6.6 22:24:40 10° NW 22:26:33 11° NNW 22:28:25 10° N visible
14 Aug 6.7 02:00:17 10° NNE 02:01:37 11° NNE 02:02:56 10° NE visible
14 Aug 4.9 03:42:26 10° NNW 03:47:44 37° NE 03:52:58 10° ESE visible
14 Aug 4.8 20:23:41 10° WSW 20:29:04 40° NW 20:34:28 10° NNE visible
14 Aug 6.6 22:13:16 10° NW 22:15:06 11° NNW 22:16:54 10° N visible
15 Aug 6.6 01:48:45 10° NNE 01:50:09 11° NNE 01:51:33 10° NE visible
15 Aug 4.9 03:30:58 10° NNW 03:36:15 38° NE 03:41:30 10° ESE visible
15 Aug 4.8 20:12:14 10° WSW 20:17:36 40° NW 20:22:59 10° NNE visible
15 Aug 6.6 22:01:53 10° NW 22:03:38 11° NNW 22:05:24 10° N visible
16 Aug 6.6 01:37:14 10° NNE 01:38:42 11° NNE 01:40:10 10° NE visible
16 Aug 4.8 03:19:28 10° NNW 03:24:47 38° NE 03:30:03 10° ESE visible
16 Aug 4.9 20:00:46 10° WSW 20:06:07 39° NW 20:11:30 10° NNE visible
16 Aug 6.6 21:50:29 10° NW 21:52:11 11° NNW 21:53:52 10° NNW visible
17 Aug 6.5 01:25:43 10° NNE 01:27:14 11° NNE 01:28:45 10° NE visible
17 Aug 4.7 03:08:00 10° NNW 03:13:19 38° NE 03:18:35 10° ESE visible
17 Aug 4.9 19:49:18 10° WSW 19:54:39 39° NW 20:00:01 10° NNE visible
17 Aug 6.5 21:39:05 10° NW 21:40:43 11° NNW 21:42:21 10° NNW visible
18 Aug 6.4 01:14:12 10° NNE 01:15:46 11° NNE 01:17:21 10° NE visible
18 Aug 4.7 02:56:30 10° NNW 03:01:50 39° NE 03:07:07 10° ESE visible
18 Aug 5.0 19:37:51 10° WSW 19:43:11 38° NW 19:48:32 10° NNE visible
18 Aug 6.5 21:27:41 10° NW 21:29:15 11° NNW 21:30:49 10° NNW visible
19 Aug 6.4 01:02:41 10° NNE 01:04:19 11° NNE 01:05:57 10° NE visible
19 Aug 4.6 02:45:01 10° NNW 02:50:22 39° NE 02:55:39 10° ESE visible
19 Aug 3.7 04:29:26 10° NW 04:34:41 39° WSW 04:39:53 10° S visible
19 Aug 6.5 21:16:18 10° NW 21:17:47 11° NNW 21:19:18 10° NNW visible
20 Aug 6.3 00:51:10 10° N 00:52:51 11° NNE 00:54:32 10° NE visible
20 Aug 4.6 02:33:33 10° NNW 02:38:53 40° NE 02:44:11 10° ESE visible
20 Aug 3.7 04:17:58 10° NW 04:23:12 39° WSW 04:28:22 10° S visible
20 Aug 6.5 21:04:54 10° NW 21:06:20 11° NNW 21:07:46 10° NNW visible
